QPF
0.04 0.04 0.04 0.05 0.07 0.09 0.07 0.05 0.03 0.02 0.02 0.01 0.01 0.01 0.01 0.01 0.00 0.00 0.00 0.00 0.00 0.00 0.00 0.00 0.01 0.01 0.01 0.01 0.01 0.01 0.01 0.01 0.02 0.01 0.01 0.01 0.01 0.01 0.01 0.01 0.00 0.00 0.00
0.03 0.04 0.04 0.04 0.05 0.09 0.11 0.08 0.05 0.03 0.02 0.02 0.01 0.01 0.01 0.01 0.01 0.01 0.00 0.00 0.01 0.01 0.01 0.01 0.02 0.02 0.02 0.02 0.01 0.01 0.01 0.02 0.03 0.03 0.02 0.02 0.02 0.01 0.01 0.00 0.00 0.00 0.00
0.03 0.04 0.05 0.04 0.04 0.05 0.07 0.10 0.08 0.05 0.03 0.02 0.02 0.01 0.01 0.01 0.01 0.01 0.01 0.01 0.01 0.01 0.01 0.02 0.02 0.03 0.03 0.02 0.02 0.03 0.04 0.05 0.05 0.05 0.03 0.02 0.02 0.01 0.01 0.00 0.00 0.00 0.00
0.03 0.04 0.05 0.03 0.02 0.03 0.04 0.06 0.07 0.06 0.04 0.02 0.02 0.02 0.02 0.02 0.01 0.01 0.01 0.01 0.02 0.02 0.03 0.02 0.02 0.02 0.02 0.03 0.04 0.05 0.05 0.05 0.04 0.04 0.04 0.03 0.02 0.01 0.01 0.01 0.01 0.01 0.00
0.03 0.04 0.03 0.03 0.02 0.03 0.03 0.04 0.05 0.05 0.04 0.03 0.03 0.03 0.03 0.02 0.01 0.01 0.01 0.01 0.02 0.03 0.02 0.01 0.01 0.01 0.02 0.04 0.05 0.05 0.05 0.05 0.04 0.03 0.03 0.02 0.01 0.01 0.01 0.00 0.00 0.00 0.00
0.01 0.02 0.03 0.04 0.04 0.03 0.03 0.03 0.04 0.04 0.04 0.03 0.03 0.03 0.02 0.02 0.02 0.01 0.01 0.01 0.02 0.02 0.01 0.01 0.01 0.02 0.03 0.04 0.04 0.03 0.03 0.03 0.02 0.02 0.01 0.01 0.01 0.01 0.01 0.00 0.00 0.00 0.00
0.01 0.02 0.03 0.04 0.04 0.04 0.03 0.03 0.03 0.04 0.04 0.04 0.03 0.03 0.02 0.02 0.02 0.02 0.02 0.02 0.02 0.02 0.01 0.01 0.02 0.03 0.04 0.03 0.03 0.02 0.02 0.01 0.01 0.01 0.01 0.01 0.01 0.01 0.01 0.00 0.00 0.00 0.00
0.01 0.02 0.03 0.03 0.04 0.04 0.05 0.04 0.04 0.04 0.04 0.04 0.04 0.04 0.03 0.03 0.03 0.03 0.03 0.02 0.02 0.02 0.02 0.02 0.03 0.03 0.03 0.02 0.02 0.01 0.01 0.01 0.01 0.01 0.01 0.01 0.00 0.00 0.00 0.00 0.00 0.01 0.01
0.01 0.01 0.02 0.02 0.02 0.04 0.04 0.04 0.04 0.04 0.04 0.04 0.05 0.05 0.04 0.04 0.04 0.04 0.04 0.03 0.02 0.02 0.02 0.03 0.02 0.02 0.02 0.02 0.01 0.01 0.01 0.01 0.01 0.01 0.01 0.01 0.00 0.01 0.01 0.01 0.01 0.01 0.01
0.01 0.01 0.01 0.02 0.02 0.02 0.03 0.04 0.04 0.04 0.04 0.05 0.06 0.05 0.05 0.04 0.04 0.04 0.03 0.02 0.02 0.02 0.02 0.02 0.02 0.02 0.02 0.02 0.01 0.01 0.01 0.01 0.01 0.01 0.01 0.01 0.01 0.01 0.01 0.01 0.01 0.01 0.01
0.01 0.01 0.02 0.02 0.02 0.02 0.03 0.04 0.04 0.04 0.04 0.05 0.06 0.05 0.04 0.03 0.03 0.03 0.02 0.02 0.02 0.02 0.02 0.01 0.01 0.02 0.02 0.02 0.01 0.01 0.01 0.01 0.01 0.01 0.01 0.01 0.00 0.00 0.01 0.00 0.00 0.01 0.01
0.01 0.02 0.02 0.02 0.03 0.03 0.02 0.02 0.03 0.03 0.04 0.05 0.06 0.05 0.04 0.03 0.03 0.03 0.03 0.03 0.03 0.02 0.02 0.01 0.01 0.02 0.02 0.02 0.01 0.01 0.01 0.01 0.01 0.01 0.01 0.01 0.00 0.00 0.00 0.00 0.00 0.00 0.00
0.02 0.02 0.03 0.03 0.03 0.03 0.02 0.02 0.02 0.03 0.03 0.03 0.04 0.04 0.04 0.03 0.03 0.03 0.03 0.03 0.03 0.02 0.01 0.02 0.02 0.02 0.02 0.02 0.02 0.02 0.01 0.01 0.01 0.01 0.01 0.01 0.00 0.00 0.00 0.00 0.00 0.00 0.00
0.02 0.02 0.02 0.03 0.03 0.03 0.03 0.02 0.02 0.02 0.02 0.02 0.02 0.03 0.03 0.03 0.03 0.03 0.02 0.02 0.03 0.02 0.01 0.02 0.02 0.02 0.02 0.02 0.02 0.02 0.01 0.01 0.01 0.01 0.01 0.01 0.00 0.00 0.00 0.00 0.00 0.00 0.00
0.02 0.02 0.02 0.03 0.04 0.04 0.03 0.03 0.02 0.02 0.02 0.02 0.02 0.02 0.02 0.02 0.01 0.01 0.01 0.01 0.01 0.02 0.02 0.01 0.01 0.02 0.02 0.02 0.01 0.01 0.01 0.01 0.01 0.01 0.01 0.00 0.00 0.00 0.00 0.00 0.00 0.00 0.00
0.02 0.02 0.03 0.03 0.04 0.04 0.04 0.04 0.04 0.03 0.03 0.02 0.02 0.02 0.02 0.01 0.01 0.01 0.01 0.01 0.02 0.02 0.02 0.02 0.02 0.02 0.02 0.01 0.01 0.01 0.01 0.01 0.01 0.01 0.01 0.00 0.00 0.00 0.00 0.00 0.00 0.00 0.00
0.02 0.03 0.04 0.04 0.04 0.04 0.04 0.03 0.04 0.04 0.04 0.03 0.03 0.03 0.02 0.01 0.01 0.01 0.02 0.02 0.02 0.02 0.02 0.02 0.02 0.02 0.02 0.01 0.01 0.01 0.01 0.01 0.01 0.01 0.01 0.00 0.00 0.00 0.00 0.00 0.00 0.00 0.00
0.03 0.04 0.06 0.04 0.03 0.03 0.03 0.02 0.02 0.02 0.02 0.04 0.04 0.04 0.03 0.02 0.02 0.02 0.02 0.02 0.02 0.02 0.01 0.01 0.01 0.01 0.02 0.02 0.02 0.02 0.02 0.02 0.01 0.01 0.01 0.00 0.00 0.00 0.00 0.00 0.00 0.00 0.00
0.04 0.05 0.06 0.04 0.03 0.03 0.02 0.02 0.01 0.01 0.01 0.02 0.03 0.04 0.04 0.04 0.04 0.03 0.02 0.01 0.01 0.01 0.01 0.01 0.01 0.01 0.02 0.02 0.02 0.02 0.02 0.01 0.01 0.01 0.01 0.00 0.00 0.00 0.00 0.00 0.00 0.00 0.00
0.05 0.07 0.06 0.04 0.04 0.04 0.03 0.02 0.02 0.01 0.01 0.01 0.02 0.03 0.04 0.04 0.04 0.04 0.03 0.01 0.01 0.01 0.01 0.01 0.01 0.01 0.02 0.02 0.02 0.02 0.01 0.01 0.01 0.01 0.00 0.00 0.00 0.00 0.00 0.00 0.00 0.00 0.00
0.05 0.07 0.06 0.05 0.04 0.03 0.03 0.02 0.02 0.02 0.01 0.01 0.02 0.02 0.02 0.01 0.02 0.03 0.02 0.01 0.01 0.00 0.00 0.01 0.01 0.01 0.02 0.02 0.02 0.02 0.01 0.01 0.00 0.00 0.00 0.00 0.00 0.00 0.00 0.00 0.00 0.00 0.00
0.04 0.06 0.06 0.04 0.03 0.03 0.02 0.02 0.02 0.02 0.02 0.01 0.01 0.02 0.02 0.01 0.01 0.02 0.02 0.01 0.01 0.00 0.00 0.01 0.01 0.02 0.02 0.02 0.01 0.01 0.01 0.00 0.00 0.00 0.00 0.00 0.00 0.00 0.00 0.00 0.00 0.00 0.00
0.04 0.06 0.06 0.04 0.03 0.03 0.02 0.02 0.02 0.02 0.02 0.02 0.01 0.01 0.01 0.01 0.01 0.01 0.02 0.01 0.01 0.01 0.01 0.01 0.02 0.02 0.02 0.02 0.01 0.01 0.00 0.00 0.00 0.00 0.00 0.00 0.00 0.00 0.00 0.00 0.00 0.00 0.00
0.04 0.05 0.05 0.04 0.03 0.03 0.02 0.02 0.03 0.03 0.03 0.02 0.02 0.02 0.01 0.01 0.01 0.01 0.02 0.01 0.01 0.01 0.02 0.02 0.02 0.02 0.01 0.01 0.01 0.00 0.00 0.00 0.00 0.00 0.00 0.00 0.00 0.00 0.00 0.00 0.00 0.00 0.00
0.05 0.05 0.04 0.04 0.03 0.03 0.02 0.02 0.03 0.03 0.03 0.02 0.02 0.01 0.01 0.01 0.01 0.02 0.02 0.02 0.02 0.02 0.02 0.02 0.02 0.02 0.01 0.01 0.00 0.00 0.00 0.00 0.00 0.00 0.00 0.00 0.00 0.00 0.00 0.00 0.00 0.00 0.00
0.06 0.06 0.05 0.04 0.04 0.03 0.03 0.03 0.02 0.02 0.02 0.02 0.02 0.01 0.01 0.02 0.02 0.02 0.02 0.02 0.02 0.02 0.02 0.01 0.01 0.01 0.01 0.00 0.00 0.00 0.00 0.00 0.00 0.00 0.00 0.00 0.00 0.00 0.00 0.00 0.00 0.00 0.00
MSLP
998.17 999.42 1000.65 1001.82 1002.92 1003.96 1004.94 1005.89 1006.84 1007.78 1008.71 1009.64 1010.53 1011.38 1012.15 1012.85 1013.47 1014.02 1014.50 1014.94 1015.35 1015.73 1016.09 1016.43 1016.74 1017.01 1017.24 1017.42 1017.57 1017.69 1017.78 1017.86 1017.93 1017.98 1018.02 1018.03 1018.01 1017.94 1017.82 1017.66 1017.46 1017.23 1016.98
997.60 998.86 1000.11 1001.31 1002.44 1003.49 1004.48 1005.44 1006.37 1007.29 1008.21 1009.11 1009.98 1010.81 1011.57 1012.26 1012.86 1013.39 1013.86 1014.27 1014.64 1014.98 1015.31 1015.61 1015.91 1016.18 1016.43 1016.66 1016.87 1017.07 1017.25 1017.42 1017.57 1017.70 1017.80 1017.86 1017.87 1017.83 1017.72 1017.57 1017.37 1017.14 1016.89
997.09 998.35 999.61 1000.83 1001.97 1003.04 1004.04 1004.99 1005.91 1006.81 1007.70 1008.58 1009.42 1010.23 1010.98 1011.66 1012.26 1012.78 1013.24 1013.64 1014.00 1014.33 1014.64 1014.94 1015.23 1015.52 1015.81 1016.09 1016.37 1016.64 1016.91 1017.17 1017.40 1017.61 1017.77 1017.88 1017.93 1017.91 1017.82 1017.68 1017.49 1017.27 1017.02
996.65 997.89 999.15 1000.37 1001.53 1002.60 1003.61 1004.55 1005.46 1006.34 1007.20 1008.05 1008.88 1009.68 1010.42 1011.10 1011.71 1012.25 1012.72 1013.14 1013.51 1013.85 1014.17 1014.49 1014.81 1015.13 1015.46 1015.80 1016.14 1016.49 1016.83 1017.16 1017.47 1017.74 1017.95 1018.11 1018.19 1018.20 1018.14 1018.01 1017.84 1017.62 1017.38
996.29 997.49 998.72 999.94 1001.09 1002.17 1003.17 1004.11 1005.01 1005.88 1006.73 1007.58 1008.40 1009.19 1009.94 1010.64 1011.28 1011.85 1012.37 1012.82 1013.23 1013.61 1013.98 1014.34 1014.69 1015.06 1015.44 1015.82 1016.22 1016.63 1017.03 1017.41 1017.77 1018.09 1018.35 1018.54 1018.65 1018.69 1018.65 1018.54 1018.37 1018.16 1017.92
995.97 997.12 998.33 999.52 1000.67 1001.75 1002.75 1003.70 1004.60 1005.47 1006.33 1007.17 1008.01 1008.82 1009.60 1010.34 1011.02 1011.65 1012.22 1012.74 1013.22 1013.66 1014.08 1014.49 1014.90 1015.32 1015.74 1016.17 1016.61 1017.05 1017.49 1017.91 1018.29 1018.64 1018.92 1019.13 1019.26 1019.31 1019.29 1019.19 1019.03 1018.83 1018.58
995.70 996.79 997.95 999.13 1000.26 1001.34 1002.35 1003.31 1004.23 1005.12 1006.00 1006.87 1007.74 1008.59 1009.41 1010.20 1010.95 1011.65 1012.29 1012.89 1013.44 1013.96 1014.46 1014.93 1015.40 1015.86 1016.33 1016.79 1017.26 1017.71 1018.16 1018.58 1018.97 1019.32 1019.60 1019.81 1019.95 1020.01 1019.99 1019.90 1019.74 1019.53 1019.27
995.44 996.48 997.60 998.75 999.88 1000.96 1002.00 1002.98 1003.94 1004.87 1005.79 1006.70 1007.61 1008.51 1009.40 1010.25 1011.07 1011.84 1012.57 1013.24 1013.88 1014.48 1015.05 1015.59 1016.12 1016.62 1017.12 1017.61 1018.08 1018.53 1018.97 1019.38 1019.74 1020.06 1020.33 1020.52 1020.65 1020.70 1020.67 1020.58 1020.42 1020.20 1019.92
995.21 996.20 997.29 998.42 999.55 1000.65 1001.71 1002.74 1003.74 1004.72 1005.69 1006.66 1007.63 1008.59 1009.53 1010.45 1011.34 1012.18 1012.99 1013.75 1014.46 1015.14 1015.78 1016.38 1016.96 1017.51 1018.03 1018.52 1018.99 1019.43 1019.83 1020.20 1020.53 1020.81 1021.03 1021.20 1021.30 1021.33 1021.29 1021.18 1021.02 1020.79 1020.49
995.03 995.98 997.05 998.16 999.29 1000.42 1001.52 1002.59 1003.65 1004.69 1005.72 1006.75 1007.78 1008.79 1009.80 1010.77 1011.72 1012.63 1013.50 1014.34 1015.12 1015.87 1016.57 1017.23 1017.85 1018.43 1018.97 1019.47 1019.92 1020.33 1020.70 1021.02 1021.30 1021.52 1021.70 1021.81 1021.87 1021.88 1021.82 1021.70 1021.52 1021.28 1020.98
994.95 995.87 996.91 998.02 999.16 1000.31 1001.45 1002.57 1003.68 1004.78 1005.87 1006.96 1008.04 1009.10 1010.15 1011.18 1012.18 1013.15 1014.08 1014.97 1015.81 1016.62 1017.38 1018.08 1018.74 1019.35 1019.90 1020.40 1020.83 1021.21 1021.53 1021.81 1022.02 1022.19 1022.31 1022.38 1022.39 1022.36 1022.27 1022.13 1021.94 1021.70 1021.39
995.00 995.90 996.93 998.03 999.18 1000.35 1001.52 1002.69 1003.84 1004.99 1006.13 1007.27 1008.39 1009.50 1010.59 1011.66 1012.70 1013.70 1014.68 1015.61 1016.51 1017.36 1018.16 1018.91 1019.60 1020.23 1020.79 1021.28 1021.70 1022.05 1022.34 1022.56 1022.72 1022.83 1022.89 1022.91 1022.88 1022.81 1022.69 1022.53 1022.33 1022.08 1021.77
995.24 996.13 997.14 998.23 999.38 1000.57 1001.76 1002.95 1004.15 1005.33 1006.51 1007.68 1008.83 1009.97 1011.09 1012.19 1013.26 1014.30 1015.31 1016.28 1017.21 1018.10 1018.94 1019.72 1020.43 1021.08 1021.65 1022.14 1022.54 1022.87 1023.12 1023.29 1023.41 1023.47 1023.48 1023.44 1023.37 1023.26 1023.12 1022.94 1022.72 1022.46 1022.14
995.70 996.57 997.56 998.65 999.79 1000.98 1002.18 1003.39 1004.60 1005.81 1007.01 1008.20 1009.38 1010.54 1011.68 1012.80 1013.89 1014.96 1015.99 1016.99 1017.94 1018.86 1019.72 1020.52 1021.25 1021.90 1022.48 1022.96 1023.36 1023.66 1023.88 1024.03 1024.10 1024.12 1024.08 1024.01 1023.89 1023.75 1023.57 1023.37 1023.13 1022.85 1022.53
996.37 997.22 998.20 999.27 1000.40 1001.58 1002.78 1003.99 1005.21 1006.42 1007.63 1008.84 1010.03 1011.21 1012.36 1013.50 1014.61 1015.69 1016.74 1017.75 1018.72 1019.65 1020.52 1021.32 1022.06 1022.72 1023.29 1023.76 1024.15 1024.44 1024.64 1024.76 1024.81 1024.79 1024.72 1024.60 1024.45 1024.27 1024.06 1023.83 1023.56 1023.27 1022.92
997.22 998.07 999.03 1000.08 1001.20 1002.37 1003.55 1004.76 1005.97 1007.18 1008.40 1009.61 1010.81 1012.00 1013.17 1014.32 1015.44 1016.53 1017.58 1018.60 1019.57 1020.49 1021.35 1022.15 1022.87 1023.52 1024.07 1024.54 1024.91 1025.19 1025.38 1025.48 1025.50 1025.46 1025.36 1025.21 1025.03 1024.81 1024.57 1024.31 1024.02 1023.69 1023.32
998.22 999.06 1000.01 1001.05 1002.16 1003.31 1004.48 1005.68 1006.88 1008.09 1009.31 1010.52 1011.73 1012.92 1014.10 1015.26 1016.38 1017.47 1018.52 1019.53 1020.48 1021.37 1022.21 1022.97 1023.67 1024.29 1024.82 1025.27 1025.62 1025.89 1026.06 1026.15 1026.16 1026.10 1025.98 1025.81 1025.60 1025.36 1025.08 1024.78 1024.45 1024.10 1023.70
999.29 1000.14 1001.10 1002.14 1003.23 1004.37 1005.53 1006.72 1007.92 1009.13 1010.34 1011.56 1012.77 1013.97 1015.15 1016.31 1017.43 1018.51 1019.54 1020.51 1021.43 1022.28 1023.07 1023.78 1024.43 1025.01 1025.51 1025.92 1026.26 1026.51 1026.67 1026.75 1026.76 1026.69 1026.56 1026.37 1026.14 1025.86 1025.56 1025.23 1024.87 1024.48 1024.06
1000.41 1001.28 1002.24 1003.28 1004.38 1005.51 1006.68 1007.85 1009.05 1010.26 1011.47 1012.68 1013.90 1015.10 1016.28 1017.43 1018.54 1019.59 1020.59 1021.52 1022.38 1023.17 1023.90 1024.55 1025.14 1025.66 1026.11 1026.49 1026.80 1027.03 1027.19 1027.27 1027.27 1027.20 1027.06 1026.86 1026.61 1026.32 1025.99 1025.63 1025.25 1024.84 1024.39
1001.53 1002.42 1003.41 1004.46 1005.56 1006.70 1007.86 1009.04 1010.23 1011.43 1012.64 1013.86 1015.07 1016.27 1017.44 1018.58 1019.66 1020.68 1021.63 1022.50 1023.30 1024.02 1024.66 1025.24 1025.75 1026.21 1026.61 1026.95 1027.23 1027.45 1027.60 1027.68 1027.68 1027.62 1027.48 1027.28 1027.02 1026.71 1026.37 1026.00 1025.60 1025.18 1024.72
1002.64 1003.56 1004.57 1005.63 1006.74 1007.88 1009.04 1010.21 1011.40 1012.60 1013.81 1015.02 1016.23 1017.42 1018.57 1019.69 1020.74 1021.71 1022.61 1023.42 1024.14 1024.78 1025.34 1025.84 1026.28 1026.67 1027.02 1027.31 1027.57 1027.77 1027.91 1027.99 1028.01 1027.95 1027.81 1027.62 1027.36 1027.05 1026.70 1026.33 1025.93 1025.50 1025.06
1003.74 1004.68 1005.70 1006.77 1007.88 1009.02 1010.17 1011.34 1012.51 1013.70 1014.90 1016.10 1017.30 1018.48 1019.61 1020.70 1021.71 1022.65 1023.48 1024.23 1024.87 1025.44 1025.92 1026.34 1026.71 1027.04 1027.33 1027.59 1027.82 1028.01 1028.15 1028.23 1028.25 1028.20 1028.07 1027.88 1027.63 1027.33 1026.99 1026.62 1026.23 1025.82 1025.40
1004.81 1005.76 1006.79 1007.85 1008.96 1010.08 1011.21 1012.36 1013.52 1014.70 1015.88 1017.06 1018.24 1019.40 1020.51 1021.57 1022.55 1023.44 1024.23 1024.91 1025.49 1025.98 1026.40 1026.75 1027.06 1027.33 1027.58 1027.80 1028.01 1028.18 1028.31 1028.40 1028.42 1028.38 1028.26 1028.08 1027.84 1027.55 1027.23 1026.87 1026.51 1026.13 1025.74
1005.85 1006.80 1007.81 1008.86 1009.94 1011.04 1012.14 1013.26 1014.39 1015.54 1016.70 1017.87 1019.02 1020.16 1021.25 1022.28 1023.23 1024.09 1024.83 1025.47 1026.00 1026.44 1026.79 1027.09 1027.35 1027.57 1027.78 1027.97 1028.15 1028.31 1028.43 1028.51 1028.53 1028.49 1028.39 1028.21 1027.99 1027.71 1027.40 1027.07 1026.74 1026.39 1026.05
1006.84 1007.78 1008.77 1009.79 1010.83 1011.88 1012.95 1014.03 1015.12 1016.24 1017.37 1018.51 1019.65 1020.77 1021.84 1022.85 1023.78 1024.61 1025.32 1025.92 1026.42 1026.81 1027.13 1027.38 1027.59 1027.78 1027.95 1028.12 1028.27 1028.40 1028.51 1028.58 1028.59 1028.55 1028.44 1028.28 1028.06 1027.79 1027.51 1027.20 1026.90 1026.59 1026.29
1007.78 1008.69 1009.64 1010.61 1011.61 1012.61 1013.63 1014.67 1015.72 1016.81 1017.91 1019.03 1020.15 1021.25 1022.31 1023.30 1024.21 1025.02 1025.72 1026.30 1026.77 1027.13 1027.42 1027.64 1027.82 1027.97 1028.11 1028.24 1028.36 1028.47 1028.55 1028.60 1028.60 1028.54 1028.43 1028.26 1028.05 1027.80 1027.53 1027.25 1026.97 1026.70 1026.44
Thickness
5632 5637 5639 5641 5642 5642 5641 5641 5640 5638 5636 5634 5632 5629 5626 5624 5621 5618 5615 5611 5607 5603 5599 5595 5591 5587 5582 5577 5571 5566 5560 5555 5550 5545 5538 5533 5527 5522 5516 5511 5505 5500 5494
5631 5634 5636 5638 5639 5639 5639 5639 5637 5635 5634 5632 5630 5627 5625 5622 5619 5616 5612 5608 5605 5601 5596 5592 5587 5582 5578 5572 5567 5561 5555 5550 5544 5538 5531 5524 5519 5513 5507 5502 5496 5490 5484
5627 5630 5632 5634 5635 5637 5637 5636 5634 5632 5631 5629 5627 5625 5624 5620 5617 5614 5611 5607 5603 5599 5594 5589 5584 5579 5573 5568 5562 5556 5550 5544 5537 5531 5524 5517 5510 5504 5498 5492 5486 5480 5473
5622 5625 5628 5632 5634 5635 5634 5633 5632 5630 5627 5626 5625 5624 5622 5619 5615 5611 5607 5603 5599 5594 5590 5586 5581 5576 5571 5564 5557 5551 5544 5537 5530 5523 5516 5509 5502 5495 5489 5483 5477 5470 5462
5617 5621 5626 5629 5630 5629 5628 5628 5628 5626 5625 5624 5621 5619 5617 5615 5612 5608 5604 5599 5595 5589 5585 5581 5576 5572 5567 5560 5554 5546 5539 5531 5523 5516 5509 5501 5494 5486 5480 5473 5466 5459 5452
5611 5618 5622 5623 5624 5624 5623 5623 5622 5622 5620 5619 5617 5615 5613 5611 5609 5605 5601 5595 5590 5585 5579 5574 5570 5564 5559 5554 5548 5542 5535 5526 5518 5510 5502 5494 5487 5479 5472 5463 5455 5448 5442
5605 5612 5615 5617 5619 5619 5619 5618 5617 5617 5616 5615 5613 5611 5609 5607 5604 5600 5595 5590 5585 5580 5574 5569 5563 5557 5552 5546 5539 5533 5527 5521 5514 5506 5496 5488 5480 5473 5464 5455 5445 5436 5429
5599 5605 5609 5612 5613 5614 5613 5613 5613 5613 5611 5610 5609 5606 5603 5600 5597 5593 5588 5582 5577 5572 5568 5563 5557 5550 5544 5538 5530 5523 5516 5510 5504 5498 5490 5482 5473 5464 5455 5446 5436 5426 5417
5592 5598 5603 5606 5607 5607 5608 5608 5607 5607 5605 5604 5602 5600 5597 5594 5590 5586 5580 5574 5569 5564 5559 5555 5550 5544 5538 5530 5523 5515 5506 5499 5493 5486 5479 5471 5463 5455 5445 5435 5425 5415 5405
5586 5592 5597 5599 5601 5602 5603 5602 5601 5600 5598 5596 5593 5592 5591 5587 5583 5579 5574 5569 5562 5556 5550 5546 5542 5537 5530 5523 5515 5507 5498 5490 5482 5475 5467 5459 5451 5442 5434 5425 5415 5404 5394
5579 5584 5589 5592 5594 5595 5595 5594 5593 5591 5589 5587 5585 5583 5581 5579 5575 5571 5568 5564 5557 5550 5543 5537 5533 5528 5522 5514 5508 5501 5493 5483 5473 5465 5455 5446 5438 5430 5421 5413 5404 5394 5383
5571 5576 5580 5583 5585 5586 5585 5584 5583 5582 5580 5578 5575 5572 5570 5568 5566 5563 5560 5557 5552 5545 5537 5530 5525 5519 5512 5505 5498 5491 5483 5473 5463 5454 5444 5436 5427 5418 5410 5402 5393 5384 5374
5561 5566 5570 5573 5575 5576 5576 5575 5574 5574 5573 5570 5568 5565 5560 5558 5557 5554 5551 5547 5542 5536 5529 5523 5517 5509 5502 5494 5488 5480 5471 5462 5453 5444 5435 5426 5417 5408 5400 5391 5382 5374 5365
5552 5556 5560 5564 5565 5566 5567 5568 5568 5568 5567 5564 5561 5558 5553 5550 5548 5544 5540 5535 5531 5525 5518 5512 5505 5497 5490 5483 5475 5468 5460 5453 5444 5435 5425 5416 5407 5399 5390 5381 5371 5362 5353
5544 5548 5551 5554 5556 5556 5557 5558 5561 5562 5565 5563 5559 5556 5551 5546 5542 5540 5536 5528 5523 5517 5509 5500 5492 5484 5477 5470 5463 5456 5449 5442 5433 5424 5416 5407 5398 5390 5381 5372 5362 5352 5341
5536 5539 5543 5545 5547 5547 5547 5545 5545 5550 5550 5552 5553 5550 5546 5543 5536 5531 5527 5522 5516 5510 5502 5492 5483 5476 5469 5462 5454 5445 5438 5431 5424 5415 5407 5398 5389 5380 5371 5361 5352 5341 5331
5528 5532 5534 5537 5539 5540 5540 5541 5537 5534 5536 5538 5539 5539 5537 5533 5528 5523 5518 5512 5506 5501 5492 5484 5476 5468 5461 5453 5445 5438 5430 5422 5415 5406 5398 5389 5380 5371 5362 5352 5342 5332 5323
5519 5522 5526 5529 5532 5534 5534 5534 5534 5533 5529 5525 5525 5526 5525 5523 5519 5514 5509 5502 5493 5488 5483 5476 5468 5460 5453 5445 5437 5430 5422 5414 5406 5397 5389 5380 5371 5362 5353 5343 5333 5323 5314
5511 5515 5519 5521 5523 5525 5525 5525 5524 5524 5522 5519 5515 5513 5513 5511 5507 5503 5499 5495 5488 5480 5473 5467 5460 5453 5446 5438 5430 5422 5414 5406 5398 5389 5380 5371 5362 5353 5344 5334 5324 5317 5307
5504 5508 5512 5514 5515 5516 5517 5517 5517 5516 5514 5513 5510 5507 5503 5500 5496 5491 5488 5485 5480 5473 5466 5459 5452 5445 5438 5431 5423 5415 5407 5398 5390 5381 5372 5363 5354 5345 5336 5326 5316 5307 5298
5496 5499 5503 5506 5507 5509 5510 5511 5511 5510 5508 5505 5501 5499 5499 5495 5490 5485 5480 5475 5471 5465 5458 5451 5444 5438 5431 5424 5416 5408 5400 5391 5382 5374 5365 5356 5347 5337 5328 5319 5309 5300 5292
5489 5493 5497 5499 5501 5502 5504 5504 5504 5503 5500 5497 5492 5489 5488 5485 5481 5476 5471 5465 5460 5456 5450 5445 5438 5431 5425 5418 5410 5402 5393 5385 5376 5367 5358 5349 5340 5330 5321 5312 5302 5294 5286
5484 5488 5490 5492 5494 5495 5496 5496 5496 5495 5492 5489 5486 5483 5479 5476 5472 5467 5462 5456 5451 5446 5442 5437 5431 5423 5416 5410 5404 5397 5388 5379 5371 5362 5353 5343 5334 5324 5315 5305 5296 5288 5281
5479 5482 5485 5486 5487 5488 5489 5489 5488 5487 5485 5482 5479 5477 5473 5468 5464 5458 5454 5448 5443 5438 5434 5429 5423 5417 5410 5403 5396 5389 5381 5374 5365 5356 5348 5338 5328 5318 5309 5299 5291 5283 5277
5473 5476 5478 5480 5481 5482 5482 5482 5480 5479 5477 5475 5472 5469 5464 5460 5455 5450 5445 5440 5435 5431 5426 5421 5415 5409 5403 5397 5389 5382 5374 5367 5359 5351 5342 5332 5322 5312 5303 5294 5286 5279 5272
5468 5470 5472 5474 5475 5476 5476 5476 5474 5472 5470 5467 5464 5461 5457 5452 5447 5443 5438 5433 5428 5423 5418 5413 5408 5402 5396 5389 5382 5375 5368 5360 5353 5344 5335 5326 5316 5307 5298 5290 5282 5275 5268